PEGASUS (42784 NORAD) Tracking and Keplerian Element Data

This shows tracking and keplerian element data for the satellite.

Feedback or suggestion? Click here.




ElementValue
Catalog42784
NamePEGASUS
Epoch Orbit9242
Epoch Day52.43029766
Epoch Year2019
RAAN112.7235
Inclination97.3682
Eccentricity0.0010508
Argument of Perigee284.0325
Mean Anonmoly75.9743
Mean Motion15.22209273
Decay Rate1.003E-05
L11 42784U 17036V 19052.43029766 .00001003 00000-0 46637-4 0 9990
L22 42784 97.3682 112.7235 0010508 284.0325 75.9743 15.22209273 92426

Live tracking and technical data element details for PEGASUS (NORAD 42784). PEGASUS can be tracked NOW for your location showing map with azimuth and elevation plus other details from your city location.

Track the satellite on the map from your city or location and see movement details for azimuth, elevation, latitude, longitude, range, height, and movement on the map or in text.







IsCatalogInMostPopularTable: catalog: 42784, numindb: 166
Update: records affected: 1



GetName: 42784 PEGASUS

Hit Count: updated at: Fri, 22 Feb 2019 23:11:39 GMT